Miscellaneous Local Product
Issued by NWS Hastings, NE

Home | Current Version | Previous Version | Graphics & Text | Print | Product List | Glossary On
Versions: 1 2 3 4 5 6 7 8 9 10 11 12 13 14 15 16 17 18 19 20 21 22 23 24 25 26 27 28 29 30 31 32 33 34 35 36 37 38 39 40 41 42 43 44 45 46 47 48 49 50
000
AXUS43 KGID 052202
MISGRI

GID CWA HOURLY WEATHER ROUNDUP
NATIONAL WEATHER SERVICE HASTINGS NE
400 PM CST THU MAR 05 2015

NOTE: "FAIR" INDICATES FEW OR NO CLOUDS BELOW 12,000 FEET WITH NO
SIGNIFICANT WEATHER AND/OR OBSTRUCTIONS TO VISIBILITY.

...SOUTH CENTRAL NEBRASKA...

CITY           SKY/WX    TMP DP  RH WIND       PRES   REMARKS
GRAND ISLAND   SUNNY     39   8  27 SW20      30.30F WCI  29
HASTINGS       SUNNY     40   4  22 SW13G18   30.29F WCI  32
KEARNEY        MOSUNNY   39  10  30 SW13G21   30.27F WCI  32
ORD            SUNNY     41   5  22 S14       30.22F
YORK           SUNNY     37   7  28 S10G17    30.34S WCI  30
AURORA         SUNNY     38   7  26 S13       30.30F WCI  31
LEXINGTON      PTSUNNY   42  10  27 S10G17    30.23F
HOLDREGE       MOSUNNY   41   8  25 SW9G16    30.26F
HEBRON         SUNNY     38   1  20 SW9       30.36F WCI  32

...NEBRASKA PANHANDLE...

CITY           SKY/WX    TMP DP  RH WIND       PRES   REMARKS
CHADRON        SUNNY     41  22  46 W21       30.16S
ALLIANCE       SUNNY     46  10  23 NW21      30.14S
SCOTTSBLUFF    MOSUNNY   47  14  26 W17G26    30.18S
SIDNEY         CLOUDY    44  13  28 NW18G25   30.19S

...WESTERN AND NORTH CENTRAL NEBRASKA...

CITY           SKY/WX    TMP DP  RH WIND       PRES   REMARKS
VALENTINE      CLOUDY    44   8  23 W9        30.14S
AINSWORTH      SUNNY     44   5  20 W8        30.15R
ONEILL         SUNNY     39   4  23 S13G18    30.22S WCI  32
BROKEN BOW     PTSUNNY   45  12  26 SW15G25   30.20F
IMPERIAL         N/A     46  12  25 W15       30.19F
NORTH PLATTE   MOSUNNY   49  12  22 W17G23    30.18F
MCCOOK         PTSUNNY   51   9  18 SW13      30.20F

...EASTERN NEBRASKA...

CITY           SKY/WX    TMP DP  RH WIND       PRES   REMARKS
NORFOLK        SUNNY     35   5  28 S21       30.29F WCI  24
SO SIOUX CITY  SUNNY     33   4  29 S14G24    30.37F WCI  23
TEKAMAH        SUNNY     32   4  30 S17       30.41F WCI  21
COLUMBUS       SUNNY     36   7  30 S15       30.35F WCI  26
ALBION         SUNNY     36   4  25 S14G22    30.28F WCI  27
OMAHA EPPLEY   SUNNY     30   4  33 S10       30.43F WCI  21
OFFUTT AFB     SUNNY     30   4  32 S7        30.42F WCI  23
MILLARD        SUNNY     31   4  32 S7        30.42F WCI  24
LINCOLN        SUNNY     35   6  29 S14       30.40F WCI  26
NEBRASKA CITY  SUNNY     31  -4  21 S7        30.43F WCI  25
BEATRICE       SUNNY     34   6  30 S9        30.40F WCI  27
FALLS CITY     SUNNY     32   3  29 SE7       30.46F WCI  26

...NORTHERN KANSAS...

CITY           SKY/WX    TMP DP  RH WIND       PRES   REMARKS
GOODLAND       MOSUNNY   46  11  24 SW15      30.24S
HILL CITY      SUNNY     48   1  14 SW10      30.28F
NORTON         CLEAR     48  -4  11 SW10      30.24
PHILLIPSBURG   SUNNY     48   1  14 SW8       30.29S
SMITH CENTER   SUNNY     43   3  19 SW12      30.32F
BELOIT         SUNNY     45   3  18 SW6       30.35F
HAYS           SUNNY     46   7  19 W9G16     30.33S
RUSSELL        SUNNY     45   3  17 S7        30.32F
CONCORDIA      SUNNY     40   6  24 SW7       30.37F
SALINA         SUNNY     46   4  17 W10       30.39S
TOPEKA         SUNNY     35   6  29 S8        30.48S WCI  29



USA.gov is the U.S. government's official web portal to all federal, state and local government web resources and services.